Regional Weather Roundup
Issued by NWS

Home | Current Version | Previous Version | Text Only | Print | Product List | Glossary Off
Versions: 1 2 3 4 5 6 7 8 9 10 11 12 13 14 15 16 17 18 19 20 21 22 23 24 25 26 27 28 29 30 31 32 33 34 35 36 37 38 39 40 41 42 43 44 45 46 47 48 49 50

000
ASUS43 KLOT 041710
RWRIL

ILLINOIS REGIONAL WEATHER ROUNDUP
NATIONAL WEATHER SERVICE CHICAGO/ROMEOVILLE IL
1100 AM CST WED MAR 04 2015

NOTE: "FAIR" INDICATES FEW OR NO CLOUDS BELOW 12,000 FEET WITH NO
SIGNIFICANT WEATHER AND/OR OBSTRUCTIONS TO VISIBILITY.

* THESE STATIONS ARE NOT UNDER NWS QUALITY CONTROL. THEY ALSO MAY NOT
  REPORT WEATHER SUCH AS PRECIPITATION OR FOG.

ILZ001-002-007-009-015-016-024-041800-
NORTHWEST ILLINOIS

CITY           SKY/WX    TMP DP  RH WIND       PRES   REMARKS
MOLINE         MOSUNNY   13   1  59 NW17G29   30.25R WCI  -4
STERLING*      SUNNY     18   7  62 NW14G21   30.20S WCI   4
SAVANNA*       SUNNY     17  -1  46 NW13      30.23R WCI   3
$$

ILZ003-004-008-010-011-017-018-041800-
NORTH CENTRAL ILLINOIS

CITY           SKY/WX    TMP DP  RH WIND       PRES   REMARKS
ROCKFORD       PTSUNNY   14   2  58 NW17      30.20R WCI  -3
FREEPORT*      SUNNY     12   1  61 W13       30.21R WCI  -3
ROCHELLE*      SUNNY     15   6  69 W17       30.19R WCI  -2
DE KALB*       SUNNY     13   4  68 W17       30.16R WCI  -4
PERU*          MOSUNNY   17   7  66 NW14      30.22R WCI   3
$$

ILZ005-006-012>014-019>023-041800-
NORTHEAST ILLINOIS

CITY           SKY/WX    TMP DP  RH WIND       PRES   REMARKS
CHICAGO-OHARE  PTSUNNY   19   6  57 W13       30.12R WCI   6
CHICAGO-MIDWAY CLOUDY    22  10  60 W13       30.13R WCI  10
AURORA         MOSUNNY   17   7  64 W15       30.16R WCI   2
LANSING*       PTSUNNY   22  11  61 NW9       30.11S WCI  12
JOLIET*        PTSUNNY   18   7  64 NW10G16   30.16R WCI   6
WAUKEGAN       MOSUNNY   18  -1  43 W12       30.11R WCI   5
DUPAGE AIRPORT MOSUNNY   18   6  59 NW14      30.13R WCI   4
KANKAKEE*      CLOUDY    19  12  73 W13       30.15R WCI   6
WHEELING       MOSUNNY   19   4  51 NW14      30.14R WCI   6
MORRIS*        PTSUNNY   17  10  74 NW14      30.16R WCI   3
ROMEOVILLE*    PTSUNNY   18   9  67 NW15      30.14R WCI   4
NORTHERLY ISL    N/A     22   9  57 W14         N/A  WCI   9
$$

LMZ740>746-041800-
SOUTHERN LAKE MICHIGAN

STATION/POSITION SKY/WX   TEMP    WIND        PRES    VSBY  WAVE
                          AIR SEA DIR/SP/G                  HT/PER
                          (F)     (DEG/KT/KT) (MB)    (MI)  (FT/S)
WAUKEGAN HARBOR            17                   N/A
HARRISON CRIB              19     300/ 14/ 17   N/A
BURNHAM HARBOR             22     280/ 13/ 13   N/A
CALUMET HARBOR             21     290/  9/ 13 1018.5R
MICHIGAN CITY              22     300/ 12/ 15   N/A
$$

ILZ025>027-034>036-040-047-049-050-058-095>099-041800-
WEST-CENTRAL ILLINOIS

CITY           SKY/WX    TMP DP  RH WIND       PRES   REMARKS
QUINCY         CLOUDY    18   4  54 N16       30.24F WCI   3
GALESBURG*     PTSUNNY   15   3  59 NW14      30.22F WCI   0
MACOMB*        PTSUNNY   17   8  69 NW14      30.27R WCI   2
JACKSONVILLE*  CLOUDY    19   6  58 NW15      30.24R WCI   5
PITTSFIELD*    CLOUDY    19   6  55 NW12G18   30.25F WCI   7
$$

ILZ028>032-037-038-041>044-048-051>054-059>061-041800-
CENTRAL ILLINOIS

CITY           SKY/WX    TMP DP  RH WIND       PRES   REMARKS
PONTIAC        CLOUDY    16   9  72 NW17G24   30.19R WCI   0
BLOOMINGTON    CLOUDY    17   6  62 NW17      30.17R WCI   1
DECATUR        CLOUDY    18   7  62 NW18G24   30.18R WCI   2
PEORIA         CLOUDY    18   2  49 N13G20    30.22R WCI   5
LACON*         PTSUNNY   16   4  60 NW15      30.22R WCI   1
LINCOLN*       CLOUDY    20   7  57 NW12G20   30.24R WCI   8
SPRINGFIELD    CLOUDY    19   6  57 NW15      30.23R WCI   5
TAYLORVILLE    CLOUDY    19   9  63 NW16      30.21R WCI   5
$$

ILZ033-039-045-046-055>057-062-063-041800-
EAST-CENTRAL ILLINOIS

CITY           SKY/WX    TMP DP  RH WIND       PRES   REMARKS
CHAMPAIGN      CLOUDY    17   9  70 NW20      30.15R WCI   1
DANVILLE*      CLOUDY    18  12  78 NW20      30.10S WCI   1
RANTOUL*       CLOUDY    18  11  71 NW16G23   30.15R WCI   4
MATTOON        CLOUDY    19  12  74 NW20      30.15R WCI   3
PARIS*         CLOUDY    19  14  79 NW17      30.14R WCI   4
$$

ILZ079-100>102-041800-
SOUTHWEST ILLINOIS

CITY           SKY/WX    TMP DP  RH WIND       PRES   REMARKS
ALTON          CLOUDY    21   5  49 NW14      30.24R WCI   8
BELLEVILLE     LGT SNOW  19  14  79 NW16      30.23R WCI   5
CAHOKIA*       LGT SNOW  20  15  81 N10       30.25R VSB 3/4 WCI   9
SPARTA*        CLOUDY    23  13  66 N13G18    30.24R WCI  11
$$

ILZ064>066-069>071-074>076-080>082-084>086-088>090-092>094-041800-
SOUTH-CENTRAL ILLINOIS

CITY           SKY/WX    TMP DP  RH WIND       PRES   REMARKS
CARBONDALE     FLURRIES  24  18  77 N17       30.18R WCI  11
CAIRO*         LGT SNOW N/A N/A N/A N20G25    30.10S
EFFINGHAM*     CLOUDY    20  11  66 W12       30.20R WCI   8
MARION         LGT SNOW  27  23  86 N17       30.17R WCI  14
MT. VERNON     CLOUDY    25  16  68 N6        30.18S WCI  18
CENTRALIA*     LGT SNOW  21  13  71 NW13G21   30.20R WCI   9
SALEM*         CLOUDY    23  14  68 NW16      30.20R WCI  10
METROPOLIS*    LGT SNOW  32  32 100 NW15G22   30.10R WCI  22
$$

ILZ067-068-072-073-078-083-087-091-041800-
SOUTHEAST ILLINOIS

CITY           SKY/WX    TMP DP  RH WIND       PRES   REMARKS
LAWRENCEVILLE  CLOUDY    27  20  75 NW15      30.14R WCI  15
FLORA*         CLOUDY    23  16  72 NW14      30.19R WCI  11
FAIRFIELD*     CLOUDY    26  19  74 NW8       30.16R WCI  18
HARRISBURG*    LGT SNOW  29  28  94 N13G18    30.15R WCI  19
ROBINSON*      CLOUDY    24  18  77 NW12      30.15R WCI  13
CARMI*         LGT SNOW  29  27  90 CALM      30.14R
$$

ABBREVIATIONS USED IN REMARKS
   TC - TEMPERATURE IN CELSIUS
  WCI - WIND CHILL INDEX
   HX - HEAT INDEX
  VSB - VISIBILITY
$$



USA.gov is the U.S. government's official web portal to all federal, state and local government web resources and services.